GW5813 Weather Reports


time (UTC)temp
C
wind
direction
speed
KPH
gust
KPH
rain 1hr
cm
rain 24hr
cm
rain mn
cm
humidity
%
barometer
mb
20260506184525 15 236 6.4 17.7 0.00 0.00 0.00 23 1022.6
20260506183026 16 296 3.2 12.9 0.00 0.00 0.00 25 1022.7
20260506181528 15 346 3.2 12.9 0.00 0.00 0.00 25 1022.8
20260506180018 15 350 1.6 14.5 0.00 0.00 0.00 26 1022.7
20260506174524 15 49 6.4 16.1 0.00 0.00 0.00 28 1022.6
20260506173026 15 340 4.8 11.3 0.00 0.00 0.00 26 1022.5
20260506171529 14 360 3.2 8.0 0.00 0.00 0.00 28 1022.3
20260506170019 13 251 3.2 16.1 0.00 0.00 0.00 29 1022.4
20260506164525 13 20 6.4 11.3 0.00 0.00 0.00 40 1022.3
20260506163028 12 5 0.0 8.0 0.00 0.00 0.00 44 1022.2
20260506161514 11 5 3.2 4.8 0.00 0.00 0.00 51 1022.1
20260506160013 10 5 4.8 8.0 0.00 0.03 0.00 55 1022.1
20260506154507 10 9 3.2 8.0 0.00 0.03 0.00 55 1022.0
20260506153012 9 352 0.0 0.0 0.00 0.03 0.00 59 1021.9
20260506151517 8 352 0.0 0.0 0.00 0.05 0.00 63 1022.0
20260506150018 6 352 0.0 0.0 0.00 0.10 0.00 68 1022.0
20260506144523 6 348 0.0 0.0 0.00 0.13 0.00 70 1021.9
20260506143016 5 291 0.0 0.0 0.00 0.18 0.00 72 1021.7
20260506141518 5 289 0.0 0.0 0.00 0.20 0.00 78 1021.5
20260506140024 3 286 0.0 0.0 0.00 0.23 0.00 83 1021.4
20260506134510 2 287 0.0 1.6 0.00 0.25 0.00 83 1021.2
20260506133016 1 287 0.0 4.8 0.00 0.25 0.00 83 1020.9
20260506131527 1 287 1.6 4.8 0.00 0.25 0.00 83 1020.7
20260506130022 1 287 1.6 6.4 0.00 0.25 0.00 83 1020.5
20260506124511 1 289 1.6 4.8 0.00 0.25 0.00 83 1020.2
20260506123024 1 289 1.6 4.8 0.00 0.25 0.00 82 1020.1
20260506121522 1 289 1.6 4.8 0.00 0.25 0.00 81 1020.0
20260506120029 1 290 1.6 4.8 0.00 0.25 0.00 81 1019.7
20260506114518 1 288 0.0 3.2 0.00 0.25 0.00 80 1019.8
20260506113018 1 288 1.6 4.8 0.00 0.25 0.00 79 1019.5
20260506111523 2 304 1.6 4.8 0.00 0.25 0.00 79 1019.4
20260506110037 2 304 0.0 4.8 0.00 0.25 0.00 78 1019.5
20260506104522 2 304 3.2 4.8 0.00 0.25 0.00 78 1019.4
20260506103022 2 304 3.2 6.4 0.00 0.25 0.00 76 1019.3
20260506101529 2 219 0.0 0.0 0.00 0.25 0.00 75 1019.2
20260506100025 3 219 0.0 0.0 0.00 0.25 0.00 73 1019.1
20260506094518 3 219 0.0 0.0 0.00 0.25 0.00 71 1018.9
20260506093031 4 219 0.0 0.0 0.00 0.28 0.00 69 1018.9
20260506091524 4 219 0.0 0.0 0.00 0.28 0.00 67 1018.8
20260506090033 5 219 0.0 6.4 0.00 0.28 0.00 64 1018.7
20260506084518 4 217 1.6 6.4 0.00 0.28 0.00 70 1018.8
20260506083031 4 213 0.0 0.0 0.00 0.28 0.00 70 1018.8
20260506081527 5 213 0.0 0.0 0.00 0.28 0.00 70 1018.6
20260506073026 5 229 1.6 4.8 0.00 0.28 0.00 68 1018.3
20260506071510 5 229 1.6 3.2 0.00 0.28 0.00 65 1018.5
20260506061510 6 208 4.8 11.3 0.00 0.28 0.28 48 1018.0
20260506044533 6 232 3.2 12.9 0.00 0.28 0.28 54 1017.2
20260506043008 7 250 3.2 9.7 0.00 0.28 0.28 51 1017.0
20260506041511 7 218 3.2 11.3 0.00 0.28 0.28 52 1016.7
20260506040022 7 225 3.2 8.0 0.00 0.28 0.28 52 1016.5
20260506034525 7 250 3.2 8.0 0.00 0.28 0.28 53 1016.4
20260506033013 7 227 3.2 9.7 0.00 0.28 0.28 52 1016.1
20260506031529 7 237 3.2 8.0 0.00 0.28 0.28 52 1015.8
20260506030021 7 252 3.2 6.4 0.00 0.28 0.28 51 1015.6
20260506024532 8 244 1.6 6.4 0.00 0.28 0.28 49 1015.4
20260506023014 8 246 1.6 4.8 0.00 0.28 0.28 47 1015.3
20260506021521 9 246 1.6 6.4 0.00 0.28 0.28 45 1014.9
20260506020025 10 244 1.6 6.4 0.00 0.30 0.28 45 1014.6
20260506014527 10 275 3.2 12.9 0.00 0.30 0.28 43 1014.5
20260506013013 10 299 1.6 4.8 0.00 0.38 0.28 41 1014.4
20260506011520 11 350 1.6 6.4 0.00 0.38 0.28 36 1014.2
20260506010047 11 290 1.6 9.7 0.00 0.38 0.28 34 1014.1
20260506004528 11 325 3.2 16.1 0.00 0.38 0.28 38 1014.0
20260506003014 11 323 3.2 12.9 0.00 0.38 0.28 38 1013.9
20260506001522 10 290 4.8 14.5 0.00 0.38 0.28 44 1013.9
20260506000026 10 313 6.4 16.1 0.00 0.38 0.28 45 1013.8
20260505234530 10 334 6.4 19.3 0.00 0.38 0.28 45 1013.8
20260505233019 10 324 4.8 19.3 0.00 0.38 0.28 48 1013.7
20260505231525 10 338 8.0 22.5 0.00 0.38 0.28 48 1013.8
20260505230037 10 348 6.4 16.1 0.00 0.38 0.28 46 1013.7
20260505224533 11 13 6.4 19.3 0.00 0.38 0.28 36 1013.5
20260505223021 12 15 6.4 12.9 0.00 0.38 0.28 33 1013.5
20260505221508 11 15 6.4 19.3 0.00 0.38 0.28 35 1013.5
20260505220007 11 321 6.4 14.5 0.00 0.38 0.28 35 1013.5
20260505214516 11 256 1.6 6.4 0.00 0.38 0.28 41 1013.6
20260505213026 10 344 1.6 6.4 0.00 0.38 0.28 47 1013.6
20260505211506 10 5 4.8 11.3 0.00 0.38 0.28 41 1013.6
20260505210012 10 232 3.2 8.0 0.00 0.38 0.28 48 1013.5
20260505204520 9 266 3.2 6.4 0.00 0.38 0.28 53 1013.7
20260505203003 8 166 1.6 12.9 0.00 0.38 0.28 53 1013.7
20260505201510 7 89 3.2 6.4 0.00 0.38 0.28 53 1013.7
20260505200014 8 5 3.2 11.3 0.00 0.38 0.28 53 1013.9
20260505194519 7 62 0.0 12.9 0.00 0.38 0.28 55 1014.2
20260505193004 7 28 4.8 12.9 0.00 0.38 0.28 57 1014.1
20260505191507 6 242 1.6 9.7 0.00 0.38 0.28 67 1013.9
20260505190025 5 319 4.8 12.9 0.00 0.38 0.28 70 1013.8